Weather Roundup
Issued by NWS Springfield, MO

Home | Current Version | Previous Version | Text Only | Print | Product List | Glossary On
Versions: 1 2 3 4 5 6 7 8 9 10 11 12 13 14 15 16 17 18 19 20 21 22 23 24 25 26 27 28 29 30 31 32 33 34 35 36 37 38 39 40 41 42 43 44 45 46 47 48 49 50
000
NZUS99 KSGF 060157
HRRSGF

HOURLY WEATHER
NATIONAL WEATHER SERVICE SPRINGFIELD MO
900 PM CDT THU MAY 05 2016

......SGF CWA......

CITY           SKY/WX    TMP DP  RH WIND       PRES   REMARKS
SPRINGFIELD    CLEAR     61  33  35 NW3       30.03R
JOPLIN         CLEAR     61  44  53 NE5       30.03R
WEST PLAINS    CLEAR     58  33  39 N5        30.03R
ROLLA          CLEAR     54  39  57 CALM      30.01R
BRANSON        PTCLDY    61  37  41 CALM      30.04R

......SURROUNDING SGF CWA......

CITY           SKY/WX    TMP DP  RH WIND       PRES   REMARKS
CHANUTE        CLEAR     59  46  62 CALM      30.02R
PARSONS        CLEAR     58  52  80 CALM      30.03R
COFFEYVILLE    CLEAR     64  48  56 E3        30.02R
EMPORIA        CLEAR     65  45  48 E6        30.02R
HARRISON AR    CLEAR     59  35  40 N3        30.03R

......KANSAS AND MISSOURI......

CITY           SKY/WX    TMP DP  RH WIND       PRES   REMARKS
KANSAS CTY INT PTCLDY    65  37  35 E5        30.03R
SEDALIA        CLEAR     63  33  32 CALM      30.04R
ST JOSEPH      CLEAR     62  44  51 S6        30.02S
ST LOUIS       PTCLDY    62  43  49 NW3       30.01S
WICHITA        PTCLDY    70  46  42 CALM      30.02R
TOPEKA         CLEAR     65  49  56 CALM      30.02R
OLATHE         CLEAR     65  37  35 CALM      30.03R

......TENNESSEE......

CITY           SKY/WX    TMP DP  RH WIND       PRES   REMARKS
MEMPHIS        NOT AVBL
NASHVILLE      CLOUDY    55  42  61 NW8       29.97R

......ARKANSAS.......

CITY           SKY/WX    TMP DP  RH WIND       PRES   REMARKS
FAYETTEVILLE   CLEAR     55  47  74 CALM      30.03R
FT SMITH       CLEAR     69  44  40 NW6       29.99R
LITTLE ROCK    CLEAR     67  39  35 NE7       29.97R

......OKLAHOMA.......

CITY           SKY/WX    TMP DP  RH WIND       PRES   REMARKS
TULSA          PTCLDY    69  47  45 E3        29.99R
PONCA CITY     CLEAR     67  45  45 CALM      30.01R
MCALESTER      CLEAR     59  51  75 CALM      30.02R
OKLAHOMA CITY  PTCLDY    72  42  34 E5        30.03R

......IOWA............

CITY           SKY/WX    TMP DP  RH WIND       PRES   REMARKS
DES MOINES     NOT AVBL
QUAD CITIES    CLEAR     54  41  61 CALM      29.98S

......ILLINOIS........

CITY           SKY/WX    TMP DP  RH WIND       PRES   REMARKS
QUINCY         NOT AVBL
CHICAGO        PTCLDY    52  37  56 E3        29.98R



USA.gov is the U.S. government's official web portal to all federal, state and local government web resources and services.